Weather in Zimari

Russia / Altai Krai     53°11′09″N   83°27′52″E
temp.,
°C
wind,
m/s
gust,
m/s
humid.,
%
clouds,
%
prec.,
mm/h
press.,
hPa
HPBL,
m
25 february, thu
thu2501:00−13w51483100 0.8 1016687
04:00−17wsw3491100 0.0 101862
07:00−17wsw3792100 0.0 1020308
10:00−19sw5118684 0.0 1022681
13:00−17sw8147655 0.0 10231240
16:00−16sw10157698 0.0 10231818
19:00−17sw7167899 0.1 10241356
22:00−18wsw81486100 0.3 10251423
26 february, fri
fri2601:00−21sw61483100 0.4 10261470
04:00−22sw81588100 0.0 10281373
07:00−22sw81487100 0.1 10311157
10:00−23wsw91586100 0.0 1034988
13:00−20sw101587100 0.1 10351227
16:00−20sw91385100 0.1 10361158
19:00−21sw51191100 0.1 1037623
22:00−22sw41093100 0.1 1039642
27 february, sat
sat2701:00−23wsw41094100 0.1 1039612
04:00−24wsw3895100 0.1 1039357
07:00−24sw3494100 0.1 1039113
10:00−24ssw3694100 0.0 1039272
13:00−21ssw458998 0.0 1039479
16:00−19ssw4586100 0.0 1039618
19:00−23ssw339599 0.0 103927
22:00−25ssw239534 0.0 104020
28 february, sun
sun2801:00−26s239417 0.0 104019
04:00−26s23940 0.0 104019
07:00−26sse2310020 0.0 103920
10:00−22sse3610097 0.0 1039150
13:00−15sse469081 0.0 1037323
16:00−12s488636 0.0 1034456
19:00−12se498968 0.0 1032237
22:00−13sse41088100 0.0 1029251
1 march, mon
mon101:00−10sse51090100 0.1 1026315
04:00−9s61695100 1.2 10231042
07:00−7ssw81794100 3.3 1021961
10:00−6sw111992100 1.6 1019821
13:00−5sw121993100 2.9 1018796
16:00−4sw121991100 0.6 1017782
19:00−4sw101987100 0.7 1018690
22:00−5sw101889100 0.0 1018532